Overview Statistics Trail Chart Weather Telemetry Raw packets
 

This is the latest recevied weather packets stored in our database for station/object KA1JKB. If no packets are shown the sender has not sent any weather packets the latest 10 day(s).

<< 44 45 46 47 48 49 50 >>
Time Temp. Humidity Pressure Rain* Wind** Luminosity Snow
1788128606 22.78° C 90% 1014.9 hPa 0 mm - 93 W/m² -
1788128301 22.78° C 89% 1014.6 hPa 0 mm - 85 W/m² -
1788127999 22.78° C 89% 1014.9 hPa 0 mm - 85 W/m² -
1788127698 23.33° C 88% 1014.7 hPa 0 mm - 92 W/m² -
1788127398 23.33° C 87% 1014.9 hPa 0 mm - 98 W/m² -
1788127096 23.89° C 86% 1015.1 hPa 0 mm - 121 W/m² -
1788126791 23.89° C 86% 1015.2 hPa 0 mm - 216 W/m² -
1788126486 23.33° C 87% 1015.1 hPa 0 mm - 245 W/m² -
1788126181 23.33° C 86% 1015.3 hPa 0 mm - 121 W/m² -
1788125880 23.33° C 86% 1015.2 hPa 0 mm - 108 W/m² -
1788125575 23.89° C 85% 1015.3 hPa 0 mm - 131 W/m² -
1788125271 23.89° C 84% 1015.2 hPa 0 mm - 184 W/m² -
1788124967 23.89° C 85% 1015.1 hPa 0 mm - 222 W/m² -
1788124666 23.33° C 84% 1015 hPa 0 mm - 177 W/m² -
1788124365 23.33° C 85% 1015.1 hPa 0 mm - 193 W/m² -
1788124062 22.78° C 85% 1014.9 hPa 0 mm - 205 W/m² -
1788123760 22.78° C 85% 1014.9 hPa 0 mm - 183 W/m² -
1788123458 22.78° C 85% 1015 hPa 0 mm - 149 W/m² -
1788123153 22.22° C 85% 1015 hPa 0 mm - 68 W/m² -
1788122848 22.78° C 85% 1015 hPa 0 mm - 38 W/m² -
1788122547 22.78° C 84% 1014.9 hPa 0 mm - 55 W/m² -
1788122244 22.78° C 84% 1014.7 hPa 0 mm - 91 W/m² -
1788121939 22.78° C 84% 1014.6 hPa 0 mm - 88 W/m² -
1788121638 22.78° C 85% 1014.6 hPa 0 mm - 116 W/m² -
1788121334 22.78° C 85% 1014.8 hPa 0 mm - 131 W/m² -

* Rain latest hour (hover to see other rain measurements)
** Current wind speed in m/s (hover to see current wind gust speed)